Regional Weather Roundup
Issued by NWS

Home | Current Version | Previous Version | Graphics & Text | Print | Product List | Glossary On
Versions: 1 2 3 4 5 6 7 8 9 10 11 12 13 14 15 16 17 18 19 20 21 22 23 24 25 26 27 28 29 30 31 32 33 34 35 36 37 38 39 40 41 42 43 44 45 46 47 48 49 50
000
ASUS45 KTFX 262210
RWRMT
MONTANA REGIONAL WEATHER ROUNDUP
NATIONAL WEATHER SERVICE GREAT FALLS MT
400 PM MDT TUE MAY 26 2015

NOTE: "FAIR" INDICATES FEW OR NO CLOUDS BELOW 12000 FEET WITH NO
SIGNIFICANT WEATHER AND/OR OBSTRUCTIONS TO VISIBILITY.

MTZ001>007-043-262300-
WEST OF THE DIVIDE

CITY           SKY/WX    TMP DP  RH WIND       PRES   REMARKS
KALISPELL      MOCLDY    67  44  43 N8        29.93F
MISSOULA       SUNNY     67  39  35 N7        29.93F
BUTTE          MOSUNNY   65  30  27 VRB5      29.97F
MULLAN PASS    CLOUDY    50  43  77 VRB5      30.03F
$$

MTZ008-052>055-262300-
SOUTHWEST MONTANA

CITY           SKY/WX    TMP DP  RH WIND       PRES   REMARKS
BOZEMAN        SUNNY     67  41  38 NW7       29.95F
DILLON         SUNNY     68  39  34 E6        29.93F
W YELLOWSTONE  LGT RAIN  45  39  81 W9G18     30.08R
$$

MTZ009-010-012-014-046-048-049-054-262300-
EAST SLOPES AND CENTRAL MONTANA

CITY           SKY/WX    TMP DP  RH WIND       PRES   REMARKS
CUT BANK       MOSUNNY   63  47  55 N6        29.97F
GREAT FALLS    MOSUNNY   64  48  56 NE8       29.96S
MALMSTROM AFB  PTSUNNY   61  51  69 NE6       29.97S
HELENA         MOSUNNY   72  41  32 NE6G20    29.92S
$$

MTZ011-013-016-021-045-047-050-051-262300-
NORTH CENTRAL MONTANA

CITY           SKY/WX    TMP DP  RH WIND       PRES   REMARKS
HAVRE          CLOUDY    69  49  48 W18       29.93S
LEWISTOWN      CLOUDY    59  50  72 SE3       29.98S
N BAR RANCH    CLOUDY    55  50  82 S7        30.01R
$$

MTZ017>020-022>027-061-062-262300-
NORTHEAST MONTANA

CITY           SKY/WX    TMP DP  RH WIND       PRES   REMARKS
GLASGOW        MOSUNNY   76  41  28 S5        29.87S
JORDAN           N/A     77  44  30 E6        29.86F
SIDNEY         SUNNY     81  45  28 SE6       29.87S
WOLF POINT     SUNNY     78  47  33 VRB3      29.86S
$$

MTZ028>42-056>058-262300-
SOUTHCENTRAL AND SOUTHEAST MONTANA

CITY           SKY/WX    TMP DP  RH WIND       PRES   REMARKS
BAKER          SUNNY     75  45  34 SE15      29.92F
BILLINGS       CLOUDY    71  45  39 N7        29.90S
LIVINGSTON     PTSUNNY   68  39  34 SW10      29.94S
MILES CITY     MOSUNNY   77  47  34 VRB3      29.87S
$$

REGIONAL REPORTS...DAKOTAS

CITY           SKY/WX    TMP DP  RH WIND       PRES   REMARKS
WILLISTON      PTSUNNY   81  44  27 SW9       29.87F
MINOT          PTSUNNY   75  44  33 SE10      29.84R
DICKINSON      MOSUNNY   76  42  29 SW13G18   29.89F
BEACH          FAIR      73  41  31 S15       29.91F
CROSBY         FAIR      81  39  22 W6        29.87S
WATFORD CITY   FAIR      79  39  24 W8        29.85F
BISMARCK       MOSUNNY   80  44  27 N8G17     29.86F
GRAND FORKS    MOSUNNY   85  44  23 VRB3      29.73S
FARGO          PTSUNNY   76  56  49 S12       29.77F
BUFFALO SD       N/A     71  44  37 S14G25    29.88F
RAPID CITY     CLOUDY    67  50  54 S10       29.97F
$$

REGIONAL REPORTS...WYOMING/IDAHO/WASHINGTON

CITY           SKY/WX    TMP DP  RH WIND       PRES   REMARKS
GILLETTE       PTSUNNY   67  47  48 SE10      29.92F THUNDER
SHERIDAN       CLOUDY    64  50  60 S10       29.95F
BUFFALO WY     CLOUDY    65  44  46 VRB3      29.99S
CODY           CLOUDY    55  45  67 NW9       29.97R THUNDER
YELLOWSTONE LA   N/A     47  35  63 VRB6      30.13R
IDAHO FALLS    CLOUDY    67  47  48 S16G22    29.98F
SALMON         MOSUNNY   68  39  34 NW6       29.89F
BOISE          MOSUNNY   74  40  29 VRB5      29.89F
SPOKANE        PTSUNNY   63  47  55 VRB3      29.96F
$$

REGIONAL REPORTS...ALBERTA

CITY           SKY/WX    TMP DP  RH WIND       PRES   REMARKS
EDMONTON       MOSUNNY   75  45  33 N12       29.94F
CALGARY        PTSUNNY   66  43  42 N20       29.98S
LETHBRIDGE     PTSUNNY   63  48  59 S18       29.98S
MEDICINE HAT   PTSUNNY   66  48  52 W18G26    29.92R
$$

REGIONAL REPORTS...SASKATCHEWAN

CITY           SKY/WX    TMP DP  RH WIND       PRES   REMARKS
SWIFT CURRENT  PTSUNNY   77  36  22 S14       29.88F
REGINA         PTSUNNY   81  39  22 W7        29.84S
SASKATOON      MOSUNNY   81  41  24 NE10G17   29.84S
$$


USA.gov is the U.S. government's official web portal to all federal, state and local government web resources and services.